Location: Dumpton Point
(51.3500°N, 1.4433°E)
Time: 23:57:35
(UTC+00:00)

Vanguard 1 - Pass Details

Date: 25 September 2022
Orbit: 650 x 3831 km, 34.2° (Epoch: 03 December)

Event Time Altitude Azimuth Distance (km) Brightness Sun altitude
Rises 15:43:20 0° 222° (SW) 5,792 15.3 17.7°
Reaches altitude 10° 15:49:26 10° 205° (SSW) 4,085 14.1 16.8°
Maximum altitude 15:55:00 16° 171° (S) 2,949 12.8 16.0°
Drops below altitude 10° 15:59:13 10° 135° (SE) 2,930 12.3 15.4°
Sets 16:02:29 0° 113° (ESE) 3,531 12.5 15.0°
